Regional Weather Roundup
Issued by NWS

Home | Current Version | Previous Version | Graphics & Text | Print | Product List | Glossary On
Versions: 1 2 3 4 5 6 7 8 9 10 11 12 13 14 15 16 17 18 19 20 21 22 23 24 25 26 27 28 29 30 31 32 33 34 35 36 37 38 39 40 41 42 43 44 45 46 47 48 49 50
000
ASUS43 KOAX 240602
RWRNE

WEATHER ROUNDUP FOR NEBRASKA
NATIONAL WEATHER SERVICE OMAHA NE
100 AM CDT SUN MAY 24 2015

NOTES: SATELLITE DATA IS BEING USED TO AUGMENT CLOUD COVER ABOVE
       12000 FEET.
       "FAIR" INDICATES FEW OR NO CLOUDS BELOW 12,000 FEET WITH NO
       SIGNIFICANT WEATHER AND/OR OBSTRUCTIONS TO VISIBILITY.

  * THESE STATIONS DO NOT REPORT WEATHER SUCH AS RAIN...SNOW OR FOG.

NEZ001>004-019>022-054>056-240700-
NEBRASKA PANHANDLE

CITY           SKY/WX    TMP DP  RH WIND       PRES   REMARKS
SCOTTSBLUFF    LGT RAIN  54  53  97 SE12      29.93R
6HR MIN TEMP:  54; 6HR MAX TEMP:  56; 6HR PCP:  0.10;

ALLIANCE       CLOUDY    53  52  96 SE17      29.94S
6HR MIN TEMP:  53; 6HR MAX TEMP:  57; 6HR PCP:  0.01;

CHADRON        CLOUDY    54  51  90 E10       29.97R
6HR MIN TEMP:  53; 6HR MAX TEMP:  58; 6HR PCP:  0.05;

SIDNEY         CLOUDY    49  48  97 E5        29.94F
6HR MIN TEMP:  49; 6HR MAX TEMP:  56; 6HR PCP:  0.82;

$$

NEZ057>060-069>072-079>082-240700-
SOUTHWEST NEBRASKA

CITY           SKY/WX    TMP DP  RH WIND       PRES   REMARKS
NORTH PLATTE   CLOUDY    56  54  93 E20       29.94F
6HR MIN TEMP:  55; 6HR MAX TEMP:  58; 6HR PCP:  0.04;

IMPERIAL       LGT RAIN  55  53  93 SE17      29.93S FOG
6HR MIN TEMP:  55; 6HR MAX TEMP:  63; 6HR PCP:  0.01;

LEXINGTON      RAIN      58  57  97 E12       29.96F
MCCOOK         CLOUDY    57  56  96 E14       29.92S
6HR MIN TEMP:  57; 6HR MAX TEMP:  63; 6HR PCP: TRACE;

$$

NEZ005>010-023>029-035>040-094-240700-
NORTH CENTRAL NEBRASKA

CITY           SKY/WX    TMP DP  RH WIND       PRES   REMARKS
VALENTINE      CLOUDY    55  53  93 E9        30.02S
6HR MIN TEMP:  55; 6HR MAX TEMP:  56; 6HR PCP:  0.08;

AINSWORTH      CLOUDY    55  55 100 E13       30.02S FOG
BROKEN BOW     LGT RAIN  57  56  96 E8        29.98F FOG
6HR MIN TEMP:  57; 6HR MAX TEMP:  58; 6HR PCP:  0.09;

ORD            CLOUDY    57  56  96 E8        29.99R FOG
6HR MIN TEMP:  56; 6HR MAX TEMP:  58; 6HR PCP:  0.07;

$$

NEZ041-046>049-061>064-073>077-083>087-240700-
SOUTH CENTRAL NEBRASKA

CITY           SKY/WX    TMP DP  RH WIND       PRES   REMARKS
GRAND ISLAND   CLOUDY    59  57  93 E9        29.99S
6HR MIN TEMP:  59; 6HR MAX TEMP:  60;

HASTINGS       CLOUDY    59  57  93 E10       29.97F
6HR MIN TEMP:  59; 6HR MAX TEMP:  60;

KEARNEY *      CLOUDY    57  55  94 E12       29.98S
$$

NEZ011>018-030>034-042>045-240700-
NORTHEAST NEBRASKA

CITY           SKY/WX    TMP DP  RH WIND       PRES   REMARKS
NORFOLK        LGT RAIN  59  57  93 E9        30.02S FOG
6HR MIN TEMP:  59; 6HR MAX TEMP:  60; 6HR PCP:  0.03;

BLAIR          DRIZZLE   61  58  91 E5        30.03S
COLUMBUS *     CLOUDY    59  54  82 E8        30.05R
FREMONT        CLOUDY    62  60  93 E9        30.03R
TEKAMAH        LGT RAIN  61  60  97 SE8       30.03R
6HR MIN TEMP:  61; 6HR MAX TEMP:  65; 6HR PCP: TRACE;

$$

NEZ050>053-065>068-078-088>093-240700-
SOUTHEAST NEBRASKA

CITY           SKY/WX    TMP DP  RH WIND       PRES   REMARKS
LINCOLN        LGT RAIN  62  59  90 E6        30.00F
6HR MIN TEMP:  61; 6HR MAX TEMP:  62; 6HR PCP: TRACE;

OMAHA EPPLEY   CLOUDY    63  60  90 S7        30.03R
6HR MIN TEMP:  62; 6HR MAX TEMP:  65; 6HR PCP:  0.02;

FALLS CITY     LGT RAIN  61  59  93 SE22G29   29.94R
6HR MIN TEMP:  61; 6HR MAX TEMP:  62; 6HR PCP:  0.36;

PLATTSMOUTH    CLOUDY    61  58  90 E3        30.03R
$$

NEZ044-045-051>053-067-240700-
OMAHA AREA

CITY           SKY/WX    TMP DP  RH WIND       PRES   REMARKS
OMAHA EPPLEY   CLOUDY    63  60  90 S7        30.03R
6HR MIN TEMP:  62; 6HR MAX TEMP:  65; 6HR PCP:  0.02;

BLAIR          DRIZZLE   61  58  91 E5        30.03S
FREMONT        CLOUDY    62  60  93 E9        30.03R
OFFUTT AFB     CLOUDY    62  60  91 E5        30.03R
PLATTSMOUTH    CLOUDY    61  58  90 E3        30.03R
$$


USA.gov is the U.S. government's official web portal to all federal, state and local government web resources and services.